Location: Boleita
(10.4833°N, 66.8167°W)
Time: 14:41:08
(UTC+00:00)

SJ-6B - Pass Details

Date: 03 August 2024
Orbit: 483 x 542 km, 97.4° (Epoch: 14 September)

Event Time Altitude Azimuth Distance (km) Brightness Sun altitude
Exits shadow 23:34:49 14° 131° (SE) 1,554 4.5 -11.2°
Maximum altitude 23:37:29 29° 77° (ENE) 1,026 3.7 -11.9°
Drops below altitude 10° 23:40:54 10° 17° (NNE) 1,817 5.5 -12.7°
Sets 23:43:14 0° 6° (N) 2,712 6.6 -13.2°
